Find Starlink 34764

NORAD ID: 65098 Int'l Des: 2025-167 Owner: SPXS Country: US Constellation: starlink operational
LEOCIRCULAR

当前视图

正在加载3D地球...

About Starlink 34764

Starlink 34764 (NORAD 65098) is a starlink constellation satellite (v2 mini) launched Aug 4, 2025 by SPXS of US. It operates in LEO, CIRCULAR orbit with a mass of 575.00 kg.

即将过境

Passes for default location (London). Set your location on the main map for personalized predictions.

高度历史

Loading altitude history...

两行轨道根数

1 65098U 25167W 26263.21655782 .00010229 00000-0 31340-3 0 9992
2 65098 53.1578 198.7794 0001507 102.5147 257.6024 15.34406545 63324
Epoch: Sep 20, 2026 • Age: 20 hours

当前状态

高度 467.0 km
远地点 / 近地点 N/A
速度 7.63 km/s
星下点 -14.10°S, 162.46°E
发射日期 Aug 4, 2025
运行时间 1.1 years
类型 internet

技术详情

分类 Payload
质量 575.00 kg
干质量 530.00 kg
长度 0.30 m
跨度 29.00 m
形状 ? Box + pan
制造商 SPXS
平台类型 Starlink V2MO
阶段状态 In Orbit
所有者/国家 SPXS/US

Most Searched